Tracking 31027 objects as of 19-Jul-2025
HD Live streaming from Space Station
objects crossing your sky now

SL-12 R/B(2)

Track SL-12 R/B(2) now!


NORAD ID: 22966
Int'l Code: 1994-002D
Perigee: 35,837.0 km
Apogee: 36,203.6 km
Inclination: 14.1 °
Period: 1,447.7 minutes
Semi major axis: 42391 km
RCS: 2.5179 m2 (large)
Launch date: January 20, 1994
Source: Commonwealth of Independent States (former USSR) (CIS)
Launch site: TYURATAM MISSILE AND SPACE COMPLEX (TTMTR)

Note: This is a ROCKET BODY
Your satellite tracking list
PRISMA
Track 1 satellite(s)




NASA's NSSDC Master Catalog

Two Line Element Set (TLE):
1 22966U 94002D   25199.25322839 -.00000265  00000-0  00000-0 0  9994
2 22966  14.1387 346.5137 0043236 140.0570 208.4586  0.99469107113750
Source of the keplerian elements: AFSPC